EN

Hourly Weather Kyzyl-Barzhau

Today, 30 July, Friday

Time Temperature Precipitation Wind Pressure Humidity
00:00 +17°C° 0 mm 2 mps 742 mmHg 52%
01:00 +16°C° 0 mm 2 mps 742 mmHg 53%
02:00 +16°C° 0.2 mm 2 mps 742 mmHg 65%
03:00 +15°C° 0.2 mm 2 mps 741 mmHg 76%
04:00 +15°C° 0 mm 2 mps 741 mmHg 88%
05:00 +14°C° 0 mm 3 mps 741 mmHg 85%
06:00 +15°C° 0 mm 4 mps 740 mmHg 81%
07:00 +15°C° 0 mm 4 mps 740 mmHg 78%
08:00 +17°C° 0.1 mm 5 mps 740 mmHg 74%
09:00 +19°C° 0.1 mm 5 mps 739 mmHg 69%
10:00 +20°C° 0.1 mm 6 mps 739 mmHg 65%
11:00 +22°C° 0.2 mm 5 mps 739 mmHg 65%
12:00 +23°C° 0.2 mm 5 mps 738 mmHg 64%
13:00 +25°C° 0.2 mm 4 mps 738 mmHg 64%
14:00 +25°C° 0.5 mm 4 mps 738 mmHg 67%
15:00 +25°C° 0.5 mm 5 mps 738 mmHg 70%
16:00 +25°C° 0.5 mm 5 mps 738 mmHg 73%
17:00 +25°C° 0.3 mm 4 mps 739 mmHg 73%
18:00 +23°C° 0.3 mm 4 mps 739 mmHg 74%
19:00 +24°C° 0.3 mm 3 mps 739 mmHg 74%
20:00 +23°C° 0 mm 2 mps 739 mmHg 75%
21:00 +21°C° 0 mm 2 mps 739 mmHg 77%
22:00 +21°C° 0 mm 1 mps 740 mmHg 78%
23:00 +21°C° 0 mm 1 mps 740 mmHg 79%

Tomorrow, 31 July, Saturday

Time Temperature Precipitation Wind Pressure Humidity
00:00 +21°C° 0 mm 1 mps 740 mmHg 81%
01:00 +20°C° 0 mm 1 mps 740 mmHg 83%
02:00 +19°C° 0 mm 1 mps 740 mmHg 85%
03:00 +19°C° 0 mm 1 mps 740 mmHg 88%
04:00 +18°C° 0 mm 1 mps 741 mmHg 90%
05:00 +18°C° 0 mm 2 mps 741 mmHg 86%
06:00 +19°C° 0 mm 2 mps 741 mmHg 82%
07:00 +20°C° 0 mm 2 mps 741 mmHg 78%
08:00 +24°C° 0 mm 3 mps 741 mmHg 69%
09:00 +26°C° 0 mm 4 mps 741 mmHg 61%
10:00 +28°C° 0 mm 5 mps 741 mmHg 52%
11:00 +27°C° 0.1 mm 4 mps 740 mmHg 55%
12:00 +27°C° 0.1 mm 4 mps 740 mmHg 59%
13:00 +26°C° 0.1 mm 4 mps 740 mmHg 62%
14:00 +26°C° 0.3 mm 3 mps 740 mmHg 64%
15:00 +26°C° 0.3 mm 3 mps 739 mmHg 67%
16:00 +26°C° 0.3 mm 3 mps 739 mmHg 69%
17:00 +26°C° 0.1 mm 2 mps 739 mmHg 69%
18:00 +26°C° 0.1 mm 2 mps 738 mmHg 69%
19:00 +26°C° 0.1 mm 1 mps 738 mmHg 69%
20:00 +25°C° 0.1 mm 2 mps 739 mmHg 74%
21:00 +23°C° 0.1 mm 2 mps 739 mmHg 79%
22:00 +21°C° 0.1 mm 3 mps 739 mmHg 85%
23:00 +20°C° 0.7 mm 3 mps 740 mmHg 88%

Day after tomorrow, 1 August, Sunday

Time Temperature Precipitation Wind Pressure Humidity
00:00 +20°C° 0.7 mm 3 mps 740 mmHg 91%
01:00 +19°C° 0.7 mm 3 mps 740 mmHg 95%
02:00 +19°C° 0.6 mm 3 mps 740 mmHg 95%
03:00 +19°C° 0.6 mm 3 mps 741 mmHg 96%
04:00 +18°C° 0.6 mm 2 mps 741 mmHg 97%
05:00 +19°C° 0 mm 2 mps 741 mmHg 95%
06:00 +20°C° 0 mm 3 mps 742 mmHg 92%
07:00 +20°C° 0 mm 3 mps 742 mmHg 90%
08:00 +22°C° 0.1 mm 3 mps 742 mmHg 77%
09:00 +25°C° 0.1 mm 4 mps 742 mmHg 63%
10:00 +27°C° 0.1 mm 4 mps 743 mmHg 50%
11:00 +28°C° 0 mm 5 mps 742 mmHg 44%
12:00 +29°C° 0 mm 5 mps 742 mmHg 38%
13:00 +30°C° 0 mm 5 mps 742 mmHg 32%
14:00 +32°C° 0 mm 5 mps 742 mmHg 31%
15:00 +32°C° 0 mm 5 mps 742 mmHg 31%
16:00 +32°C° 0 mm 5 mps 742 mmHg 30%
17:00 +29°C° 0 mm 5 mps 742 mmHg 35%
18:00 +28°C° 0 mm 4 mps 742 mmHg 40%
19:00 +26°C° 0 mm 3 mps 742 mmHg 45%
20:00 +25°C° 0 mm 2 mps 743 mmHg 50%
21:00 +23°C° 0 mm 2 mps 743 mmHg 55%
22:00 +21°C° 0 mm 1 mps 744 mmHg 60%
23:00 +20°C° 0 mm 1 mps 744 mmHg 62%

2 August, Monday

Time Temperature Precipitation Wind Pressure Humidity
00:00 +18°C° 0 mm 0 mps 744 mmHg 64%
01:00 +17°C° 0 mm 0 mps 744 mmHg 66%
02:00 +16°C° 0 mm 0 mps 744 mmHg 68%
03:00 +16°C° 0 mm 0 mps 745 mmHg 71%
04:00 +15°C° 0 mm 0 mps 745 mmHg 73%
05:00 +17°C° 0 mm 0 mps 745 mmHg 69%
06:00 +20°C° 0 mm 1 mps 745 mmHg 65%
07:00 +22°C° 0 mm 1 mps 746 mmHg 61%
08:00 +23°C° 0 mm 1 mps 746 mmHg 55%
09:00 +25°C° 0 mm 2 mps 746 mmHg 48%
10:00 +27°C° 0 mm 3 mps 746 mmHg 42%
11:00 +28°C° 0 mm 3 mps 746 mmHg 40%
12:00 +29°C° 0 mm 3 mps 746 mmHg 38%
13:00 +30°C° 0 mm 4 mps 746 mmHg 36%
14:00 +30°C° 0 mm 3 mps 746 mmHg 36%
15:00 +30°C° 0 mm 3 mps 746 mmHg 37%
16:00 +30°C° 0 mm 2 mps 745 mmHg 37%
17:00 +29°C° 0 mm 2 mps 745 mmHg 42%
18:00 +28°C° 0 mm 2 mps 745 mmHg 48%
19:00 +27°C° 0 mm 1 mps 745 mmHg 53%
20:00 +25°C° 0 mm 1 mps 745 mmHg 57%
21:00 +24°C° 0 mm 2 mps 745 mmHg 62%
22:00 +21°C° 0 mm 2 mps 745 mmHg 66%
23:00 +21°C° 0 mm 2 mps 745 mmHg 68%

3 August, Tuesday

Time Temperature Precipitation Wind Pressure Humidity
00:00 +20°C° 0 mm 2 mps 745 mmHg 70%
01:00 +19°C° 0 mm 2 mps 745 mmHg 72%
02:00 +19°C° 0 mm 2 mps 745 mmHg 74%
03:00 +18°C° 0 mm 2 mps 745 mmHg 75%
04:00 +18°C° 0 mm 2 mps 745 mmHg 76%
05:00 +19°C° 0 mm 2 mps 745 mmHg 71%
06:00 +21°C° 0 mm 2 mps 745 mmHg 66%
07:00 +23°C° 0 mm 2 mps 746 mmHg 61%
08:00 +26°C° 0 mm 2 mps 746 mmHg 52%
09:00 +28°C° 0 mm 3 mps 746 mmHg 44%
10:00 +31°C° 0 mm 3 mps 745 mmHg 35%
11:00 +34°C° 0 mm 3 mps 745 mmHg 31%
12:00 +35°C° 0 mm 3 mps 745 mmHg 28%
13:00 +37°C° 0 mm 3 mps 745 mmHg 24%
14:00 +37°C° 0 mm 3 mps 744 mmHg 23%
15:00 +37°C° 0 mm 3 mps 744 mmHg 23%
16:00 +38°C° 0 mm 3 mps 743 mmHg 23%
17:00 +35°C° 0 mm 3 mps 744 mmHg 29%
18:00 +32°C° 0 mm 2 mps 744 mmHg 35%
19:00 +30°C° 0 mm 2 mps 744 mmHg 42%
20:00 +29°C° 0 mm 2 mps 744 mmHg 44%
21:00 +28°C° 0 mm 2 mps 744 mmHg 46%
22:00 +27°C° 0 mm 2 mps 744 mmHg 49%
23:00 +26°C° 0 mm 2 mps 744 mmHg 51%

4 August, Wednesday

Time Temperature Precipitation Wind Pressure Humidity
00:00 +25°C° 0 mm 2 mps 744 mmHg 53%
01:00 +25°C° 0 mm 2 mps 744 mmHg 55%
02:00 +24°C° 0 mm 1 mps 744 mmHg 57%
03:00 +23°C° 0 mm 1 mps 744 mmHg 58%
04:00 +22°C° 0 mm 1 mps 744 mmHg 59%
05:00 +24°C° 0 mm 1 mps 744 mmHg 57%
06:00 +25°C° 0 mm 2 mps 745 mmHg 54%
07:00 +26°C° 0 mm 2 mps 745 mmHg 52%
08:00 +29°C° 0 mm 2 mps 745 mmHg 44%
09:00 +31°C° 0 mm 3 mps 745 mmHg 37%
10:00 +35°C° 0 mm 3 mps 745 mmHg 29%
11:00 +36°C° 0 mm 3 mps 744 mmHg 25%
12:00 +38°C° 0 mm 4 mps 744 mmHg 22%
13:00 +41°C° 0 mm 4 mps 744 mmHg 19%
14:00 +37°C° 0.3 mm 4 mps 744 mmHg 27%
15:00 +34°C° 0.3 mm 5 mps 744 mmHg 35%
16:00 +30°C° 0.3 mm 6 mps 744 mmHg 42%
17:00 +29°C° 0.1 mm 5 mps 744 mmHg 48%
18:00 +27°C° 0.1 mm 3 mps 744 mmHg 53%
19:00 +26°C° 0.1 mm 2 mps 745 mmHg 58%
20:00 +26°C° 0 mm 2 mps 745 mmHg 55%
21:00 +26°C° 0 mm 2 mps 745 mmHg 53%
22:00 +26°C° 0 mm 2 mps 745 mmHg 50%
23:00 +24°C° 0 mm 2 mps 744 mmHg 57%
Show more